7 * 24
多渠道服务支持
GOES 8是美国于1994年4月13日发射的地球静止环境业务卫星,隶属于美国国家海洋和大气管理局(NOAA)的GOES气象卫星系列。作为静止轨道气象卫星,它运行于地球同步轨道,可对美洲及周边海域开展连续气象观测,提供可见光与红外气象数据,支撑天气预报、风暴追踪和灾害监测任务,显著提升了区域气象预警和气候研究能力,是GOES系列发展中承前启后的重要观测节点。
美国
(US)
| 数据来源 | 国际轨道数据 |
| 星历时间: | 2026-07-27T13:03:47+0800 16小时前 查看轨道信息 |
| 半长轴: | 42551.437km |
| 偏心率: | 0.0005238 |
| 轨道倾角: | 14.462° |
| 近地点辐角 | 63.271° |
| 升交点赤经 | 13.363° |
| 平近点角 | 119.440° |
| 近地点: | 36151.011km |
| 远地点: | 36195.589km |
| 周期: | 1455.898分钟 |
| 每日圈数: | 0.98908 |